Home   Weather   Ganja   Past weeks

Flag for Azerbaijan Past Weather in Ganja, Azerbaijan — Yesterday and Last 2 Weeks

Now
41 °F

Passing clouds.


Feels Like: 34 °F
Forecast: 27 / 44 °F
Wind: 12 mph from West

Location: Gyanca Airport

Current Time: Jan 23, 2017 at 2:55:28 am

Latest Report: Jan 23, 2017 at 2:00 am


Visibility: N/A

Pressure: 30.36 "Hg

Humidity: 49%

Dew Point: 23 °F

Location of GanjaLocation

Past Weather in Ganja — Graph

°F

Ganja Temperature Yesterday

Maximum temperature yesterday: 48 °F (at 2:30 pm)
Minimum temperature yesterday: 32 °F (at 7:00 am)
Average temperature yesterday: 40 °F

High & Low Weather Summary for the Past Weeks

 TemperatureHumidityPressure
High63 °F (Jan 8, 3:30 pm)100% (Jan 10, 9:30 pm)30.39 "Hg (Jan 10, 9:30 pm)
Low23 °F (Jan 18, 5:30 am)19% (Jan 8, 4:00 pm)29.83 "Hg (Jan 8, 2:30 pm)
Average38 °F71%30.16 "Hg
* Reported Jan 8 1:00 am — Jan 23 1:30 am, Ganja, Weather by CustomWeather, © 2017

Note: Actual official high and low records may vary slightly from our data, if they occured in-between our weather recording intervals... More about our weather records

Advertising

Ganja Weather History for the Previous 24 Hours

Scroll right to see more
 ConditionsComfort  
Time TempWeatherWind HumidityBarometerVisibility
1:30 am
Mon, Jan 23
41 °FPassing clouds.14 mph49%30.36 "HgN/A
1:00 am41 °FPassing clouds.14 mph49%30.36 "HgN/A
12:30 am41 °FPassing clouds.14 mph49%30.36 "HgN/A
12:00 am41 °FPassing clouds.15 mph49%30.36 "HgN/A
11:30 pm
Sun, Jan 22
41 °FPassing clouds.14 mph49%30.33 "HgN/A
11:00 pm41 °FPassing clouds.12 mph49%30.33 "HgN/A
10:30 pm41 °FPassing clouds.13 mph45%30.33 "HgN/A
10:00 pm41 °FPassing clouds.15 mph45%30.33 "HgN/A
9:30 pm41 °FPassing clouds.14 mph45%30.30 "HgN/A
9:00 pm41 °FPassing clouds.16 mph45%30.30 "HgN/A
8:30 pm39 °FPassing clouds.13 mph45%30.27 "HgN/A
8:00 pm41 °FPassing clouds.12 mph42%30.27 "HgN/A
7:30 pm41 °FPassing clouds.13 mph42%30.24 "HgN/A
7:00 pm41 °FPassing clouds.13 mph42%30.24 "HgN/A
6:30 pm41 °FPartly sunny.12 mph42%30.24 "HgN/A
6:00 pm43 °FPartly sunny.13 mph39%30.21 "HgN/A
5:30 pm45 °FScattered clouds.12 mph37%30.18 "HgN/A
5:00 pm46 °FScattered clouds.15 mph32%30.18 "HgN/A
4:30 pm46 °FScattered clouds.16 mph29%30.15 "HgN/A
4:00 pm48 °FScattered clouds.20 mph27%30.15 "HgN/A
3:30 pm48 °FScattered clouds.18 mph27%30.12 "HgN/A
3:00 pm48 °FPassing clouds.17 mph27%30.12 "HgN/A
2:30 pm48 °FPassing clouds.18 mph25%30.12 "HgN/A
2:00 pm46 °FPassing clouds.17 mph29%30.12 "HgN/A
1:30 pm46 °FPassing clouds.17 mph29%30.12 "HgN/A
1:00 pm45 °FPassing clouds.14 mph31%30.15 "HgN/A
12:30 pm45 °FPassing clouds.18 mph29%30.15 "HgN/A
12:00 pm43 °FPassing clouds.18 mph34%30.18 "HgN/A
11:30 am41 °FPassing clouds.15 mph39%30.18 "HgN/A
11:00 am41 °FPassing clouds.13 mph42%30.18 "HgN/A
10:30 am39 °FPassing clouds.15 mph48%30.18 "HgN/A
10:00 am37 °FPassing clouds.14 mph52%30.18 "HgN/A
9:30 am37 °FPassing clouds.18 mph52%30.18 "HgN/A
9:00 am36 °FPassing clouds.20 mph56%30.15 "HgN/A
8:30 am34 °FPassing clouds.18 mph60%30.18 "HgN/A
8:00 am34 °FPassing clouds.14 mph60%30.18 "HgN/A
7:30 am34 °FPassing clouds.14 mph65%30.18 "HgN/A
7:00 am32 °FPassing clouds.10 mph69%30.18 "HgN/A
6:30 am34 °FPassing clouds.10 mph65%30.18 "HgN/A
6:00 am34 °FPassing clouds.13 mph65%30.18 "HgN/A
5:30 am36 °FPassing clouds.18 mph60%30.18 "HgN/A
5:00 am36 °FPassing clouds.18 mph60%30.18 "HgN/A
4:30 am36 °FPassing clouds.17 mph60%30.18 "HgN/A
4:00 am34 °FPassing clouds.13 mph65%30.21 "HgN/A
3:30 am34 °FPassing clouds.10 mph65%30.21 "HgN/A
3:00 am34 °FPassing clouds.10 mph65%30.21 "HgN/A
2:30 am34 °FPassing clouds.12 mph65%30.21 "HgN/A
2:00 am36 °FPassing clouds.14 mph60%30.21 "HgN/A
Weather by CustomWeather, © 2017

See weather overviewHow to use our weather pages